| time (UTC) | temp F | wind direction | speed MPH | gust MPH | rain 1hr in | rain 24hr in | rain mn in | humidity % | barometer mb |
| 20260510221003 | 107 | 97 | 7.0 | 13.0 | 0.00 | 0.00 | 0.00 | 8 | 1005.2 |
| 20260510220503 | 107 | 94 | 9.0 | 15.0 | 0.00 | 0.00 | 0.00 | 9 | 1005.2 |
| 20260510215504 | 108 | 138 | 7.0 | 13.0 | 0.00 | 0.00 | 0.00 | 9 | 1005.3 |
| 20260510215003 | 108 | 150 | 7.0 | 13.0 | 0.00 | 0.00 | 0.00 | 9 | 1005.3 |
| 20260510213503 | 107 | 117 | 5.0 | 13.0 | 0.00 | 0.00 | 0.00 | 9 | 1005.5 |
| 20260510213003 | 106 | 140 | 7.0 | 12.0 | 0.00 | 0.00 | 0.00 | 10 | 1005.6 |
| 20260510212503 | 106 | 128 | 6.0 | 12.0 | 0.00 | 0.00 | 0.00 | 9 | 1005.7 |
| 20260510212004 | 107 | 114 | 5.0 | 14.0 | 0.00 | 0.00 | 0.00 | 10 | 1005.7 |
| 20260510211504 | 106 | 98 | 6.0 | 16.0 | 0.00 | 0.00 | 0.00 | 10 | 1005.7 |
| 20260510211004 | 105 | 128 | 6.0 | 15.0 | 0.00 | 0.00 | 0.00 | 10 | 1005.8 |
| 20260510210503 | 106 | 139 | 6.0 | 12.0 | 0.00 | 0.00 | 0.00 | 10 | 1005.8 |
| 20260510205503 | 106 | 82 | 5.0 | 14.0 | 0.00 | 0.00 | 0.00 | 12 | 1005.9 |
| 20260510205003 | 106 | 109 | 10.0 | 16.0 | 0.00 | 0.00 | 0.00 | 11 | 1006.1 |
| 20260510204503 | 105 | 132 | 5.0 | 12.0 | 0.00 | 0.00 | 0.00 | 13 | 1006.1 |
| 20260510204003 | 106 | 143 | 8.0 | 14.0 | 0.00 | 0.00 | 0.00 | 12 | 1006.2 |
| 20260510203503 | 105 | 121 | 7.0 | 12.0 | 0.00 | 0.00 | 0.00 | 12 | 1006.2 |
| 20260510203003 | 105 | 103 | 7.0 | 15.0 | 0.00 | 0.00 | 0.00 | 11 | 1006.3 |
| 20260510202503 | 106 | 109 | 7.0 | 14.0 | 0.00 | 0.00 | 0.00 | 12 | 1006.3 |
| 20260510202003 | 104 | 103 | 7.0 | 12.0 | 0.00 | 0.00 | 0.00 | 11 | 1006.3 |
| 20260510201002 | 104 | 107 | 7.0 | 12.0 | 0.00 | 0.00 | 0.00 | 12 | 1006.5 |
| 20260510200503 | 104 | 128 | 6.0 | 12.0 | 0.00 | 0.00 | 0.00 | 11 | 1006.6 |
| 20260510200003 | 104 | 118 | 6.0 | 14.0 | 0.00 | 0.00 | 0.00 | 12 | 1006.7 |
| 20260510195503 | 104 | 113 | 8.0 | 12.0 | 0.00 | 0.00 | 0.00 | 11 | 1006.8 |
| 20260510194503 | 104 | 117 | 7.0 | 13.0 | 0.00 | 0.00 | 0.00 | 11 | 1006.8 |
| 20260510194003 | 104 | 124 | 7.0 | 12.0 | 0.00 | 0.00 | 0.00 | 10 | 1006.8 |
| 20260510193503 | 104 | 118 | 9.0 | 12.0 | 0.00 | 0.00 | 0.00 | 9 | 1006.8 |
| 20260510193004 | 104 | 114 | 8.0 | 14.0 | 0.00 | 0.00 | 0.00 | 10 | 1006.8 |
| 20260510192503 | 104 | 130 | 7.0 | 14.0 | 0.00 | 0.00 | 0.00 | 10 | 1006.8 |
| 20260510192004 | 104 | 121 | 7.0 | 12.0 | 0.00 | 0.00 | 0.00 | 12 | 1006.8 |
| 20260510191503 | 104 | 103 | 5.0 | 9.0 | 0.00 | 0.00 | 0.00 | 12 | 1006.8 |
| 20260510191003 | 104 | 85 | 7.0 | 12.0 | 0.00 | 0.00 | 0.00 | 11 | 1006.9 |
| 20260510190504 | 104 | 90 | 6.0 | 12.0 | 0.00 | 0.00 | 0.00 | 12 | 1006.9 |
| 20260510185503 | 103 | 105 | 7.0 | 13.0 | 0.00 | 0.00 | 0.00 | 11 | 1006.8 |
| 20260510184503 | 102 | 168 | 2.0 | 7.0 | 0.00 | 0.00 | 0.00 | 13 | 1007.0 |
| 20260510183503 | 101 | 107 | 2.0 | 6.0 | 0.00 | 0.00 | 0.00 | 12 | 1007.1 |
| 20260510183003 | 101 | 95 | 4.0 | 7.0 | 0.00 | 0.00 | 0.00 | 12 | 1007.0 |
| 20260510182003 | 100 | 224 | 1.0 | 7.0 | 0.00 | 0.00 | 0.00 | 14 | 1007.0 |
| 20260510181503 | 100 | 128 | 3.0 | 6.0 | 0.00 | 0.00 | 0.00 | 12 | 1007.1 |
| 20260510181004 | 99 | 250 | 2.0 | 3.0 | 0.00 | 0.00 | 0.00 | 13 | 1007.0 |
| 20260510180503 | 99 | 225 | 1.0 | 3.0 | 0.00 | 0.00 | 0.00 | 12 | 1007.0 |
| 20260510180004 | 99 | 128 | 2.0 | 3.0 | 0.00 | 0.00 | 0.00 | 13 | 1007.0 |
| 20260510175503 | 98 | 194 | 1.0 | 3.0 | 0.00 | 0.00 | 0.00 | 12 | 1006.9 |
| 20260510175003 | 98 | 154 | 1.0 | 3.0 | 0.00 | 0.00 | 0.00 | 13 | 1007.0 |
| 20260510174503 | 98 | 229 | 2.0 | 3.0 | 0.00 | 0.00 | 0.00 | 13 | 1007.2 |
| 20260510174003 | 98 | 250 | 2.0 | 5.0 | 0.00 | 0.00 | 0.00 | 17 | 1007.1 |
| 20260510173503 | 98 | 212 | 4.0 | 5.0 | 0.00 | 0.00 | 0.00 | 14 | 1007.0 |
| 20260510173003 | 98 | 225 | 0.0 | 5.0 | 0.00 | 0.00 | 0.00 | 16 | 1007.1 |
| 20260510172503 | 98 | 254 | 3.0 | 7.0 | 0.00 | 0.00 | 0.00 | 17 | 1007.1 |
| 20260510172003 | 97 | 279 | 2.0 | 6.0 | 0.00 | 0.00 | 0.00 | 16 | 1007.1 |
| 20260510171503 | 97 | 271 | 2.0 | 5.0 | 0.00 | 0.00 | 0.00 | 16 | 1007.1 |
| 20260510171003 | 96 | 250 | 5.0 | 8.0 | 0.00 | 0.00 | 0.00 | 18 | 1007.1 |
| 20260510170003 | 96 | 279 | 5.0 | 9.0 | 0.00 | 0.00 | 0.00 | 19 | 1007.0 |
| 20260510165503 | 95 | 249 | 6.0 | 10.0 | 0.00 | 0.00 | 0.00 | 19 | 1006.9 |
| 20260510164503 | 94 | 269 | 6.0 | 9.0 | 0.00 | 0.00 | 0.00 | 20 | 1006.9 |
| 20260510164003 | 94 | 255 | 7.0 | 12.0 | 0.00 | 0.00 | 0.00 | 19 | 1006.9 |
| 20260510163504 | 93 | 261 | 4.0 | 10.0 | 0.00 | 0.00 | 0.00 | 21 | 1006.9 |
| 20260510163003 | 93 | 283 | 5.0 | 12.0 | 0.00 | 0.00 | 0.00 | 21 | 1006.9 |
| 20260510162503 | 92 | 271 | 5.0 | 10.0 | 0.00 | 0.00 | 0.00 | 21 | 1006.9 |
| 20260510162004 | 91 | 274 | 6.0 | 13.0 | 0.00 | 0.00 | 0.00 | 22 | 1006.8 |
| 20260510161504 | 91 | 266 | 5.0 | 12.0 | 0.00 | 0.00 | 0.00 | 22 | 1006.8 |
| 20260510160503 | 90 | 264 | 7.0 | 13.0 | 0.00 | 0.00 | 0.00 | 22 | 1006.8 |
| 20260510160003 | 90 | 267 | 7.0 | 15.0 | 0.00 | 0.00 | 0.00 | 21 | 1006.8 |
| 20260510155503 | 90 | 271 | 6.0 | 13.0 | 0.00 | 0.00 | 0.00 | 22 | 1006.8 |
| 20260510154003 | 89 | 283 | 6.0 | 12.0 | 0.00 | 0.00 | 0.00 | 22 | 1006.6 |
| 20260510153504 | 88 | 284 | 8.0 | 15.0 | 0.00 | 0.00 | 0.00 | 23 | 1006.6 |
| 20260510153004 | 88 | 276 | 10.0 | 14.0 | 0.00 | 0.00 | 0.00 | 24 | 1006.5 |
| 20260510152003 | 87 | 278 | 11.0 | 20.0 | 0.00 | 0.00 | 0.00 | 24 | 1006.7 |
| 20260510151503 | 87 | 279 | 9.0 | 15.0 | 0.00 | 0.00 | 0.00 | 24 | 1006.6 |
| 20260510150503 | 86 | 270 | 9.0 | 15.0 | 0.00 | 0.00 | 0.00 | 25 | 1006.5 |
| 20260510150003 | 86 | 278 | 7.0 | 15.0 | 0.00 | 0.00 | 0.00 | 25 | 1006.5 |
| 20260510145503 | 85 | 274 | 10.0 | 17.0 | 0.00 | 0.00 | 0.00 | 25 | 1006.4 |
| 20260510145003 | 85 | 287 | 8.0 | 14.0 | 0.00 | 0.00 | 0.00 | 25 | 1006.4 |
| 20260510144503 | 85 | 279 | 9.0 | 16.0 | 0.00 | 0.00 | 0.00 | 25 | 1006.4 |
| 20260510144003 | 84 | 277 | 10.0 | 18.0 | 0.00 | 0.00 | 0.00 | 26 | 1006.3 |
| 20260510143503 | 84 | 277 | 8.0 | 16.0 | 0.00 | 0.00 | 0.00 | 27 | 1006.3 |
| 20260510143003 | 83 | 294 | 10.0 | 20.0 | 0.00 | 0.00 | 0.00 | 27 | 1006.3 |
| 20260510142504 | 83 | 271 | 9.0 | 17.0 | 0.00 | 0.00 | 0.00 | 27 | 1006.3 |
| 20260510142004 | 83 | 276 | 8.0 | 15.0 | 0.00 | 0.00 | 0.00 | 26 | 1006.2 |
| 20260510141004 | 82 | 283 | 6.0 | 15.0 | 0.00 | 0.00 | 0.00 | 27 | 1006.0 |
| 20260510140502 | 82 | 274 | 9.0 | 15.0 | 0.00 | 0.00 | 0.00 | 27 | 1005.9 |
| 20260510140003 | 82 | 276 | 9.0 | 20.0 | 0.00 | 0.00 | 0.00 | 27 | 1005.9 |
| 20260510135503 | 82 | 286 | 9.0 | 18.0 | 0.00 | 0.00 | 0.00 | 27 | 1006.1 |
| 20260510135004 | 81 | 294 | 11.0 | 17.0 | 0.00 | 0.00 | 0.00 | 27 | 1006.0 |
| 20260510134503 | 81 | 278 | 9.0 | 16.0 | 0.00 | 0.00 | 0.00 | 27 | 1005.8 |
| 20260510133503 | 81 | 289 | 7.0 | 15.0 | 0.00 | 0.00 | 0.00 | 28 | 1005.8 |
| 20260510133004 | 81 | 304 | 10.0 | 21.0 | 0.00 | 0.00 | 0.00 | 28 | 1005.7 |
| 20260510132503 | 80 | 283 | 10.0 | 20.0 | 0.00 | 0.00 | 0.00 | 28 | 1005.5 |
| 20260510132004 | 80 | 280 | 9.0 | 22.0 | 0.00 | 0.00 | 0.00 | 29 | 1005.5 |
| 20260510131503 | 81 | 275 | 10.0 | 22.0 | 0.00 | 0.00 | 0.00 | 29 | 1005.4 |
| 20260510131003 | 81 | 270 | 10.0 | 20.0 | 0.00 | 0.00 | 0.00 | 28 | 1005.3 |
| 20260510130503 | 81 | 280 | 9.0 | 20.0 | 0.00 | 0.00 | 0.00 | 28 | 1005.3 |
| 20260510130003 | 81 | 284 | 9.0 | 20.0 | 0.00 | 0.00 | 0.00 | 27 | 1005.3 |
| 20260510125503 | 81 | 274 | 9.0 | 16.0 | 0.00 | 0.00 | 0.00 | 27 | 1005.3 |
| 20260510124503 | 81 | 293 | 11.0 | 20.0 | 0.00 | 0.00 | 0.00 | 27 | 1005.2 |
| 20260510124004 | 81 | 276 | 12.0 | 21.0 | 0.00 | 0.00 | 0.00 | 27 | 1005.2 |
| 20260510123003 | 81 | 279 | 10.0 | 18.0 | 0.00 | 0.00 | 0.00 | 28 | 1005.1 |
| 20260510122504 | 81 | 286 | 12.0 | 23.0 | 0.00 | 0.00 | 0.00 | 29 | 1004.9 |
| 20260510122004 | 81 | 290 | 11.0 | 21.0 | 0.00 | 0.00 | 0.00 | 28 | 1004.9 |
| 20260510121503 | 81 | 283 | 12.0 | 20.0 | 0.00 | 0.00 | 0.00 | 27 | 1004.9 |
| 20260510121003 | 81 | 287 | 12.0 | 20.0 | 0.00 | 0.00 | 0.00 | 27 | 1004.9 |
| 20260510120503 | 81 | 291 | 10.0 | 17.0 | 0.00 | 0.00 | 0.00 | 27 | 1005.0 |
| 20260510120003 | 81 | 294 | 12.0 | 22.0 | 0.00 | 0.00 | 0.00 | 27 | 1005.0 |
| 20260510115503 | 81 | 281 | 12.0 | 17.0 | 0.00 | 0.00 | 0.00 | 27 | 1004.9 |
| 20260510115003 | 81 | 292 | 12.0 | 23.0 | 0.00 | 0.00 | 0.00 | 28 | 1005.1 |
| 20260510114503 | 81 | 285 | 13.0 | 20.0 | 0.00 | 0.00 | 0.00 | 28 | 1005.0 |
| 20260510114003 | 81 | 270 | 10.0 | 17.0 | 0.00 | 0.00 | 0.00 | 29 | 1005.1 |
| 20260510113503 | 81 | 288 | 13.0 | 21.0 | 0.00 | 0.00 | 0.00 | 29 | 1005.1 |
| 20260510113003 | 81 | 276 | 12.0 | 20.0 | 0.00 | 0.00 | 0.00 | 28 | 1005.0 |
| 20260510112503 | 81 | 292 | 11.0 | 22.0 | 0.00 | 0.00 | 0.00 | 28 | 1004.9 |
| 20260510112003 | 81 | 291 | 12.0 | 20.0 | 0.00 | 0.00 | 0.00 | 29 | 1005.0 |
| 20260510111503 | 80 | 291 | 10.0 | 20.0 | 0.00 | 0.00 | 0.00 | 29 | 1005.1 |
| 20260510111003 | 80 | 269 | 12.0 | 22.0 | 0.00 | 0.00 | 0.00 | 30 | 1005.1 |
| 20260510110503 | 80 | 285 | 12.0 | 22.0 | 0.00 | 0.00 | 0.00 | 30 | 1005.2 |
| 20260510105503 | 80 | 282 | 10.0 | 20.0 | 0.00 | 0.00 | 0.00 | 31 | 1005.2 |
| 20260510105003 | 80 | 295 | 12.0 | 20.0 | 0.00 | 0.00 | 0.00 | 30 | 1005.0 |
| 20260510104503 | 81 | 276 | 12.0 | 22.0 | 0.00 | 0.00 | 0.00 | 30 | 1005.0 |
| 20260510103503 | 80 | 291 | 10.0 | 20.0 | 0.00 | 0.00 | 0.00 | 30 | 1005.0 |
| 20260510102503 | 81 | 280 | 12.0 | 22.0 | 0.00 | 0.00 | 0.00 | 31 | 1004.8 |
| 20260510102003 | 81 | 273 | 13.0 | 24.0 | 0.00 | 0.00 | 0.00 | 29 | 1004.8 |
| 20260510101503 | 82 | 270 | 14.0 | 26.0 | 0.00 | 0.00 | 0.00 | 29 | 1004.7 |
| 20260510101004 | 82 | 279 | 12.0 | 23.0 | 0.00 | 0.00 | 0.00 | 29 | 1004.7 |
| 20260510100503 | 82 | 284 | 10.0 | 21.0 | 0.00 | 0.00 | 0.00 | 29 | 1004.8 |
| 20260510100003 | 82 | 278 | 11.0 | 20.0 | 0.00 | 0.00 | 0.00 | 28 | 1004.9 |
| 20260510095004 | 82 | 283 | 10.0 | 23.0 | 0.00 | 0.00 | 0.00 | 28 | 1004.8 |
| 20260510094503 | 82 | 289 | 12.0 | 24.0 | 0.00 | 0.00 | 0.00 | 28 | 1004.8 |
| 20260510094003 | 82 | 273 | 10.0 | 18.0 | 0.00 | 0.00 | 0.00 | 28 | 1004.8 |
| 20260510093504 | 82 | 274 | 10.0 | 17.0 | 0.00 | 0.00 | 0.00 | 28 | 1004.8 |
| 20260510093004 | 83 | 278 | 12.0 | 20.0 | 0.00 | 0.00 | 0.00 | 28 | 1004.9 |
| 20260510092503 | 83 | 283 | 12.0 | 21.0 | 0.00 | 0.00 | 0.00 | 28 | 1004.9 |
| 20260510091503 | 83 | 290 | 13.0 | 20.0 | 0.00 | 0.00 | 0.00 | 29 | 1004.7 |
| 20260510090503 | 82 | 290 | 10.0 | 17.0 | 0.00 | 0.00 | 0.00 | 29 | 1004.7 |
| 20260510090003 | 82 | 285 | 11.0 | 18.0 | 0.00 | 0.00 | 0.00 | 30 | 1004.7 |
| 20260510085004 | 82 | 288 | 10.0 | 21.0 | 0.00 | 0.00 | 0.00 | 30 | 1004.7 |
| 20260510083504 | 82 | 288 | 12.0 | 21.0 | 0.00 | 0.00 | 0.00 | 31 | 1004.7 |
| 20260510083003 | 82 | 303 | 12.0 | 22.0 | 0.00 | 0.00 | 0.00 | 31 | 1004.9 |
| 20260510082503 | 82 | 286 | 13.0 | 22.0 | 0.00 | 0.00 | 0.00 | 32 | 1004.9 |
| 20260510082004 | 82 | 297 | 12.0 | 21.0 | 0.00 | 0.00 | 0.00 | 32 | 1004.9 |
| 20260510081003 | 82 | 299 | 14.0 | 24.0 | 0.00 | 0.00 | 0.00 | 33 | 1004.9 |
| 20260510080504 | 82 | 285 | 12.0 | 22.0 | 0.00 | 0.00 | 0.00 | 33 | 1005.0 |
| 20260510080004 | 82 | 295 | 9.0 | 18.0 | 0.00 | 0.00 | 0.00 | 32 | 1004.9 |
| 20260510075003 | 82 | 300 | 13.0 | 25.0 | 0.00 | 0.00 | 0.00 | 32 | 1004.9 |
| 20260510074003 | 82 | 299 | 11.0 | 21.0 | 0.00 | 0.00 | 0.00 | 33 | 1005.0 |
| 20260510073503 | 82 | 298 | 12.0 | 23.0 | 0.00 | 0.00 | 0.00 | 32 | 1005.0 |
| 20260510073004 | 82 | 299 | 12.0 | 24.0 | 0.00 | 0.00 | 0.00 | 33 | 1004.9 |
| 20260510072503 | 82 | 296 | 10.0 | 21.0 | 0.00 | 0.00 | 0.00 | 33 | 1004.9 |
| 20260510072003 | 82 | 309 | 12.0 | 23.0 | 0.00 | 0.00 | 0.00 | 33 | 1004.9 |
| 20260510071503 | 82 | 314 | 12.0 | 22.0 | 0.00 | 0.00 | 0.00 | 33 | 1004.8 |
| 20260510071003 | 82 | 287 | 13.0 | 24.0 | 0.00 | 0.00 | 0.00 | 33 | 1004.8 |
| 20260510070503 | 82 | 304 | 13.0 | 23.0 | 0.00 | 0.00 | 0.00 | 32 | 1004.8 |
| 20260510070003 | 82 | 303 | 10.0 | 23.0 | 0.00 | 0.00 | 0.00 | 32 | 1004.8 |
| 20260510065003 | 83 | 294 | 13.0 | 24.0 | 0.00 | 0.00 | 0.00 | 32 | 1004.7 |
| 20260510064503 | 83 | 300 | 13.0 | 22.0 | 0.00 | 0.00 | 0.00 | 32 | 1004.8 |
| 20260510064004 | 83 | 293 | 13.0 | 22.0 | 0.00 | 0.00 | 0.00 | 32 | 1004.7 |
| 20260510063503 | 83 | 283 | 12.0 | 24.0 | 0.00 | 0.00 | 0.00 | 32 | 1004.7 |
| 20260510062503 | 83 | 291 | 12.0 | 21.0 | 0.00 | 0.00 | 0.00 | 31 | 1004.7 |
| 20260510062003 | 83 | 295 | 14.0 | 24.0 | 0.00 | 0.00 | 0.00 | 32 | 1004.7 |
| 20260510061504 | 83 | 290 | 12.0 | 21.0 | 0.00 | 0.00 | 0.00 | 31 | 1004.6 |
| 20260510061004 | 83 | 309 | 10.0 | 20.0 | 0.00 | 0.00 | 0.00 | 31 | 1004.7 |
| 20260510060504 | 83 | 288 | 11.0 | 20.0 | 0.00 | 0.00 | 0.00 | 31 | 1004.7 |
| 20260510060004 | 83 | 301 | 11.0 | 21.0 | 0.00 | 0.00 | 0.00 | 31 | 1004.7 |
| 20260510055503 | 83 | 289 | 13.0 | 26.0 | 0.00 | 0.00 | 0.00 | 31 | 1004.7 |
| 20260510054503 | 83 | 298 | 11.0 | 23.0 | 0.00 | 0.00 | 0.00 | 32 | 1004.6 |
| 20260510054003 | 83 | 307 | 10.0 | 21.0 | 0.00 | 0.00 | 0.00 | 33 | 1004.6 |
| 20260510053503 | 83 | 303 | 11.0 | 20.0 | 0.00 | 0.00 | 0.00 | 33 | 1004.6 |
| 20260510053004 | 83 | 300 | 12.0 | 23.0 | 0.00 | 0.00 | 0.00 | 33 | 1004.7 |
| 20260510052503 | 83 | 293 | 13.0 | 20.0 | 0.00 | 0.00 | 0.00 | 33 | 1004.6 |
| 20260510052003 | 83 | 295 | 10.0 | 20.0 | 0.00 | 0.00 | 0.00 | 33 | 1004.6 |
| 20260510051503 | 84 | 304 | 11.0 | 25.0 | 0.00 | 0.00 | 0.00 | 33 | 1004.6 |
| 20260510050503 | 84 | 299 | 12.0 | 21.0 | 0.00 | 0.00 | 0.00 | 32 | 1004.4 |
| 20260510050003 | 84 | 316 | 11.0 | 26.0 | 0.00 | 0.00 | 0.00 | 32 | 1004.4 |
| 20260510045503 | 84 | 299 | 12.0 | 25.0 | 0.00 | 0.00 | 0.00 | 32 | 1004.4 |
| 20260510045004 | 84 | 286 | 13.0 | 23.0 | 0.00 | 0.00 | 0.00 | 32 | 1004.4 |
| 20260510044503 | 85 | 300 | 10.0 | 17.0 | 0.00 | 0.00 | 0.00 | 32 | 1004.4 |
| 20260510044003 | 85 | 307 | 8.0 | 16.0 | 0.00 | 0.00 | 0.00 | 32 | 1004.4 |
| 20260510043503 | 85 | 306 | 7.0 | 21.0 | 0.00 | 0.00 | 0.00 | 31 | 1004.3 |
| 20260510043003 | 85 | 305 | 7.0 | 15.0 | 0.00 | 0.00 | 0.00 | 32 | 1004.3 |
| 20260510042503 | 85 | 313 | 6.0 | 12.0 | 0.00 | 0.00 | 0.00 | 31 | 1004.2 |
| 20260510041503 | 86 | 305 | 6.0 | 13.0 | 0.00 | 0.00 | 0.00 | 31 | 1004.2 |
| 20260510041003 | 86 | 308 | 7.0 | 17.0 | 0.00 | 0.00 | 0.00 | 31 | 1004.1 |
| 20260510040003 | 86 | 292 | 9.0 | 20.0 | 0.00 | 0.00 | 0.00 | 31 | 1004.0 |
| 20260510035003 | 87 | 304 | 8.0 | 14.0 | 0.00 | 0.00 | 0.00 | 31 | 1003.9 |
| 20260510034503 | 87 | 318 | 5.0 | 10.0 | 0.00 | 0.00 | 0.00 | 31 | 1003.8 |
| 20260510034003 | 88 | 302 | 9.0 | 18.0 | 0.00 | 0.00 | 0.00 | 30 | 1003.7 |
| 20260510033503 | 88 | 294 | 9.0 | 18.0 | 0.00 | 0.00 | 0.00 | 30 | 1003.7 |
| 20260510033004 | 88 | 312 | 10.0 | 20.0 | 0.00 | 0.00 | 0.00 | 30 | 1003.6 |
| 20260510032504 | 89 | 288 | 11.0 | 18.0 | 0.00 | 0.00 | 0.00 | 30 | 1003.3 |
| 20260510032004 | 89 | 288 | 10.0 | 23.0 | 0.00 | 0.00 | 0.00 | 30 | 1003.3 |
| 20260510031503 | 89 | 294 | 10.0 | 18.0 | 0.00 | 0.00 | 0.00 | 30 | 1003.3 |
| 20260510031003 | 89 | 308 | 10.0 | 21.0 | 0.00 | 0.00 | 0.00 | 30 | 1003.3 |
| 20260510030503 | 90 | 309 | 9.0 | 17.0 | 0.00 | 0.00 | 0.00 | 29 | 1003.2 |
| 20260510030004 | 90 | 292 | 10.0 | 22.0 | 0.00 | 0.00 | 0.00 | 29 | 1003.2 |
| 20260510025503 | 91 | 304 | 11.0 | 20.0 | 0.00 | 0.00 | 0.00 | 28 | 1003.2 |
| 20260510025003 | 91 | 280 | 11.0 | 21.0 | 0.00 | 0.00 | 0.00 | 27 | 1003.1 |
| 20260510024503 | 92 | 284 | 9.0 | 17.0 | 0.00 | 0.00 | 0.00 | 27 | 1003.1 |
| 20260510024003 | 92 | 284 | 13.0 | 20.0 | 0.00 | 0.00 | 0.00 | 26 | 1003.0 |
| 20260510023504 | 92 | 306 | 9.0 | 17.0 | 0.00 | 0.00 | 0.00 | 26 | 1002.9 |
| 20260510023003 | 93 | 303 | 12.0 | 21.0 | 0.00 | 0.00 | 0.00 | 25 | 1002.8 |
| 20260510022504 | 93 | 292 | 10.0 | 17.0 | 0.00 | 0.00 | 0.00 | 24 | 1002.8 |
| 20260510022004 | 94 | 288 | 11.0 | 20.0 | 0.00 | 0.00 | 0.00 | 24 | 1002.7 |
| 20260510021503 | 94 | 300 | 10.0 | 20.0 | 0.00 | 0.00 | 0.00 | 24 | 1002.7 |
| 20260510021003 | 95 | 292 | 9.0 | 18.0 | 0.00 | 0.00 | 0.00 | 23 | 1002.7 |
| 20260510020004 | 96 | 285 | 9.0 | 17.0 | 0.00 | 0.00 | 0.00 | 22 | 1002.7 |
| 20260510015504 | 96 | 291 | 10.0 | 21.0 | 0.00 | 0.00 | 0.00 | 21 | 1002.6 |
| 20260510015004 | 96 | 290 | 9.0 | 20.0 | 0.00 | 0.00 | 0.00 | 21 | 1002.6 |
| 20260510014503 | 97 | 293 | 12.0 | 20.0 | 0.00 | 0.00 | 0.00 | 21 | 1002.6 |
| 20260510013503 | 97 | 292 | 12.0 | 17.0 | 0.00 | 0.00 | 0.00 | 20 | 1002.6 |
| 20260510013004 | 98 | 301 | 10.0 | 20.0 | 0.00 | 0.00 | 0.00 | 19 | 1002.6 |
| 20260510012504 | 98 | 305 | 9.0 | 16.0 | 0.00 | 0.00 | 0.00 | 19 | 1002.6 |
| 20260510012003 | 98 | 299 | 10.0 | 20.0 | 0.00 | 0.00 | 0.00 | 19 | 1002.6 |
| 20260510011504 | 99 | 283 | 9.0 | 20.0 | 0.00 | 0.00 | 0.00 | 18 | 1002.6 |
| 20260510011003 | 99 | 284 | 10.0 | 18.0 | 0.00 | 0.00 | 0.00 | 18 | 1002.6 |
| 20260510010003 | 100 | 290 | 10.0 | 21.0 | 0.00 | 0.00 | 0.00 | 17 | 1002.6 |
| 20260510005504 | 100 | 294 | 10.0 | 17.0 | 0.00 | 0.00 | 0.00 | 18 | 1002.6 |
| 20260510005004 | 100 | 298 | 12.0 | 21.0 | 0.00 | 0.00 | 0.00 | 17 | 1002.5 |
| 20260510004503 | 100 | 286 | 9.0 | 20.0 | 0.00 | 0.00 | 0.00 | 17 | 1002.5 |
| 20260510004004 | 101 | 292 | 10.0 | 20.0 | 0.00 | 0.00 | 0.00 | 18 | 1002.5 |
| 20260510003504 | 101 | 294 | 9.0 | 20.0 | 0.00 | 0.00 | 0.00 | 17 | 1002.5 |
| 20260510003004 | 101 | 279 | 7.0 | 17.0 | 0.00 | 0.00 | 0.00 | 18 | 1002.5 |
| 20260510002503 | 101 | 296 | 9.0 | 20.0 | 0.00 | 0.00 | 0.00 | 18 | 1002.5 |
| 20260510002003 | 101 | 312 | 6.0 | 20.0 | 0.00 | 0.00 | 0.00 | 17 | 1002.6 |
| 20260510001504 | 101 | 300 | 10.0 | 16.0 | 0.00 | 0.00 | 0.00 | 17 | 1002.6 |
| 20260510001004 | 102 | 283 | 9.0 | 15.0 | 0.00 | 0.00 | 0.00 | 16 | 1002.6 |
| 20260510000504 | 102 | 280 | 9.0 | 20.0 | 0.00 | 0.00 | 0.00 | 15 | 1002.6 |
| 20260510000004 | 102 | 294 | 7.0 | 18.0 | 0.00 | 0.00 | 0.00 | 16 | 1002.5 |
| 20260509235003 | 102 | 279 | 6.0 | 17.0 | 0.00 | 0.00 | 0.00 | 15 | 1002.6 |
| 20260509234504 | 102 | 261 | 8.0 | 14.0 | 0.00 | 0.00 | 0.00 | 16 | 1002.6 |
| 20260509234003 | 102 | 280 | 9.0 | 14.0 | 0.00 | 0.00 | 0.00 | 15 | 1002.7 |
| 20260509233503 | 102 | 305 | 9.0 | 16.0 | 0.00 | 0.00 | 0.00 | 16 | 1002.7 |
| 20260509233004 | 102 | 262 | 6.0 | 15.0 | 0.00 | 0.00 | 0.00 | 14 | 1002.8 |
| 20260509232004 | 103 | 302 | 5.0 | 16.0 | 0.00 | 0.00 | 0.00 | 15 | 1003.1 |
| 20260509231503 | 104 | 262 | 9.0 | 15.0 | 0.00 | 0.00 | 0.00 | 13 | 1003.2 |
| 20260509231003 | 104 | 303 | 5.0 | 13.0 | 0.00 | 0.00 | 0.00 | 13 | 1003.2 |
| 20260509230004 | 103 | 292 | 7.0 | 14.0 | 0.00 | 0.00 | 0.00 | 13 | 1003.3 |
| 20260509225503 | 104 | 276 | 6.0 | 10.0 | 0.00 | 0.00 | 0.00 | 13 | 1003.4 |
| 20260509224503 | 104 | 244 | 7.0 | 13.0 | 0.00 | 0.00 | 0.00 | 12 | 1003.4 |
| 20260509223504 | 104 | 307 | 3.0 | 9.0 | 0.00 | 0.00 | 0.00 | 13 | 1003.6 |
| 20260509223003 | 104 | 288 | 6.0 | 12.0 | 0.00 | 0.00 | 0.00 | 13 | 1003.6 |
| 20260509222504 | 104 | 338 | 4.0 | 10.0 | 0.00 | 0.00 | 0.00 | 14 | 1003.7 |
| 20260509222004 | 104 | 291 | 4.0 | 12.0 | 0.00 | 0.00 | 0.00 | 14 | 1003.7 |
| 20260509221503 | 104 | 287 | 6.0 | 12.0 | 0.00 | 0.00 | 0.00 | 14 | 1003.7 |